Location: Unspecified
(43.0000°N, 0.0000°E)
Time: 12:34:49
(UTC+00:00)

PicSat - Pass Details

Date: 15 August 2020
Orbit: 482 x 496 km, 97.4° (Epoch: 21 September)

Event Time Altitude Azimuth Distance (km) Brightness Sun altitude
Exits shadow 21:26:50 31° 39° (NE) 891 ? -22.8°
Drops below altitude 10° 21:29:19 10° 4° (N) 1,704 ? -23.1°
Sets 21:31:30 0° 356° (N) 2,591 ? -23.4°
